START_TIME,STEP,MOV.,M15,t_acc.,M20,t_acc.
1979-07-29 06:00:43.030 ,0,1,0.,24.0,0.,24.0
1979-07-29 06:01:07.030 ,4,1,0.,24.0,0.,24.0
1979-07-29 06:01:31.030 ,7,1,0.,24.0,0.,24.0
1979-07-29 06:01:55.030 ,3,1,0.,24.0,0.,24.0
1979-07-29 06:02:19.030 ,0,1,0.,24.0,0.,24.0
1979-07-29 06:02:43.030 ,4,1,0.,24.0,0.,24.0
1979-07-29 06:03:07.030 ,7,1,0.,24.0,0.,24.0
1979-07-29 06:03:31.030 ,3,1,0.,24.0,0.,24.0
1979-07-29 06:03:55.030 ,0,1,0.,24.0,0.,24.0
1979-07-29 06:04:19.030 ,4,1,0.,24.0,0.,24.0
1979-07-29 06:04:43.030 ,7,1,0.,24.0,0.,24.0
1979-07-29 06:05:07.030 ,3,1,0.,24.0,0.,24.0
1979-07-29 06:05:31.030 ,0,1,0.,24.0,0.,24.0
1979-07-29 06:05:55.030 ,0,0,0.,24.0,0.,24.0
1979-07-29 06:06:19.030 ,0,0,0.,24.0,0.,24.0
1979-07-29 06:06:43.030 ,5,1,0.,24.0,0.,24.0
1979-07-29 06:07:07.030 ,5,0,0.,24.0,0.,24.0
1979-07-29 06:07:31.030 ,4,1,0.,24.0,0.,24.0
1979-07-29 06:07:55.030 ,4,0,0.,24.0,0.,24.0
1979-07-29 06:08:19.030 ,3,1,0.,24.0,0.,24.0
1979-07-29 06:08:43.030 ,3,0,0.,24.0,0.,24.0
1979-07-29 06:09:07.030 ,2,1,0.,24.0,0.,24.0
1979-07-29 06:09:31.030 ,2,0,0.,24.0,0.,24.0
1979-07-29 06:09:55.030 ,1,1,0.,24.0,0.,24.0
1979-07-29 06:10:19.030 ,1,0,0.,24.0,0.,24.0
1979-07-29 06:10:43.030 ,0,1,0.,24.0,0.,24.0
1979-07-29 06:11:07.030 ,0,0,0.,24.0,0.,24.0
1979-07-29 06:11:31.030 ,0,1,0.,24.0,0.,24.0
1979-07-29 06:11:55.030 ,0,0,0.,24.0,0.,24.0
1979-07-29 06:12:19.030 ,1,1,0.,24.0,0.,24.0
1979-07-29 06:12:43.030 ,1,0,0.,24.0,0.,24.0
1979-07-29 06:13:07.030 ,2,1,0.,24.0,0.,24.0
1979-07-29 06:13:31.030 ,2,0,0.,24.0,0.,24.0
1979-07-29 06:13:55.030 ,3,1,0.,24.0,0.,24.0
1979-07-29 06:14:19.030 ,3,0,0.,24.0,0.,24.0
1979-07-29 06:14:43.030 ,4,1,0.,24.0,0.,24.0
1979-07-29 06:15:07.030 ,4,0,0.,24.0,0.,24.0
1979-07-29 06:15:31.030 ,5,1,0.,24.0,0.,24.0
1979-07-29 06:15:55.030 ,5,0,0.,24.0,0.,24.0
1979-07-29 06:16:19.030 ,6,1,0.,24.0,0.,24.0
1979-07-29 06:16:43.030 ,6,0,0.,24.0,0.,24.0
1979-07-29 06:17:07.030 ,7,1,0.,24.0,0.,24.0
1979-07-29 06:17:31.030 ,7,0,0.,24.0,0.,24.0
1979-07-29 06:17:55.030 ,7,1,0.,24.0,0.,24.0
1979-07-29 06:18:19.030 ,7,0,0.,24.0,0.,24.0
1979-07-29 06:18:43.030 ,6,1,0.,24.0,0.,24.0
1979-07-29 06:19:07.030 ,6,0,0.,24.0,0.,24.0
1979-07-29 06:19:31.030 ,5,1,0.,24.0,0.,24.0
1979-07-29 06:19:55.030 ,5,0,0.,24.0,0.,24.0
1979-07-29 06:20:19.030 ,4,1,0.,24.0,0.,24.0
1979-07-29 06:20:43.030 ,4,0,0.,24.0,0.,24.0
1979-07-29 06:21:07.030 ,3,1,0.,24.0,0.,24.0
1979-07-29 06:21:31.030 ,3,0,0.,24.0,0.,24.0
1979-07-29 06:21:55.030 ,2,1,0.,24.0,0.,24.0
1979-07-29 06:22:19.030 ,2,0,0.,24.0,0.,24.0
1979-07-29 06:22:43.030 ,1,1,0.,24.0,0.,24.0
1979-07-29 06:23:07.030 ,1,0,0.,24.0,0.,24.0
1979-07-29 06:23:31.030 ,0,1,0.,24.0,0.,24.0
1979-07-29 06:23:55.030 ,0,0,0.,24.0,0.,24.0
1979-07-29 06:24:19.030 ,0,1,0.,24.0,0.,24.0
1979-07-29 06:24:43.030 ,0,0,0.,24.0,0.,24.0
1979-07-29 06:25:07.030 ,1,1,0.,24.0,0.,24.0
1979-07-29 06:25:31.030 ,1,0,0.,24.0,0.,24.0
1979-07-29 06:25:55.030 ,2,1,0.,24.0,0.,24.0
1979-07-29 06:26:19.030 ,2,0,0.,24.0,0.,24.0
1979-07-29 06:26:43.030 ,3,1,0.,24.0,0.,24.0
1979-07-29 06:27:07.030 ,3,0,0.,24.0,0.,24.0
1979-07-29 06:27:31.030 ,4,1,0.,24.0,0.,24.0
1979-07-29 06:27:55.030 ,4,0,0.,24.0,0.,24.0
1979-07-29 06:28:19.030 ,5,1,0.,24.0,0.,24.0
1979-07-29 06:28:43.030 ,5,0,0.,24.0,0.,24.0
1979-07-29 06:29:07.030 ,6,1,0.,24.0,0.,24.0
1979-07-29 06:29:31.030 ,6,0,0.,24.0,0.,24.0
1979-07-29 06:29:55.030 ,7,1,0.,24.0,0.,24.0
1979-07-29 06:30:19.030 ,7,0,0.,24.0,0.,24.0
1979-07-29 06:30:43.030 ,7,1,0.,24.0,0.,24.0
1979-07-29 06:31:07.030 ,7,0,0.,24.0,0.,24.0
1979-07-29 06:31:31.030 ,6,1,0.,24.0,0.,24.0
1979-07-29 06:31:55.030 ,6,0,0.,24.0,0.,24.0
1979-07-29 06:32:19.030 ,5,1,0.,24.0,0.,24.0
1979-07-29 06:32:43.030 ,5,0,0.,24.0,0.,24.0
1979-07-29 06:33:07.030 ,4,1,0.,24.0,0.,24.0
1979-07-29 06:33:31.030 ,4,0,0.,24.0,0.,24.0
1979-07-29 06:33:55.030 ,3,1,0.,24.0,0.,24.0
1979-07-29 06:34:19.030 ,3,0,0.,24.0,0.,24.0
1979-07-29 06:34:43.030 ,2,1,0.,24.0,0.,24.0
1979-07-29 06:35:07.030 ,2,0,0.,24.0,0.,24.0
1979-07-29 06:35:31.030 ,1,1,0.,24.0,0.,24.0
1979-07-29 06:35:55.030 ,1,0,0.,24.0,0.,24.0
1979-07-29 06:36:19.030 ,0,1,0.,24.0,0.,24.0
1979-07-29 06:36:43.030 ,0,0,0.,24.0,0.,24.0
1979-07-29 06:37:07.030 ,0,1,0.,24.0,0.,24.0
1979-07-29 06:37:31.030 ,0,0,0.,24.0,0.,24.0
1979-07-29 06:37:55.030 ,1,1,0.,24.0,0.,24.0
1979-07-29 06:38:19.030 ,1,0,0.,24.0,0.,24.0
1979-07-29 06:38:43.030 ,2,1,0.,24.0,0.,24.0
1979-07-29 06:39:07.030 ,2,0,0.,24.0,0.,24.0
1979-07-29 06:39:31.030 ,0,0,,0,,0
1979-07-29 06:39:55.030 ,0,0,,0,,0
1979-07-29 06:39:55.030 ,3,0,0.,24.0,0.,24.0
1979-07-29 06:40:19.030 ,4,1,0.,24.0,0.,24.0
1979-07-29 06:40:43.030 ,4,0,0.,24.0,0.,24.0
1979-07-29 06:41:07.030 ,5,1,0.,24.0,0.,24.0
1979-07-29 06:41:31.030 ,5,0,0.,24.0,0.,24.0
1979-07-29 06:41:55.030 ,6,1,0.,24.0,0.,24.0
1979-07-29 06:42:19.030 ,6,0,0.,24.0,0.,24.0
1979-07-29 06:42:43.030 ,7,0,0.,24.0,0.,24.0
1979-07-29 06:43:07.030 ,7,0,0.,24.0,0.,24.0
1979-07-29 06:43:31.030 ,3,1,0.,24.0,0.,24.0
1979-07-29 06:43:55.030 ,0,1,0.,24.0,0.,24.0
1979-07-29 06:45:07.030 ,0,0,0.,24.0,0.,24.0
1979-07-29 06:45:31.030 ,0,1,0.,24.0,0.,24.0
1979-07-29 06:45:55.030 ,4,1,0.,24.0,0.,24.0
1979-07-29 06:46:19.030 ,7,1,0.,24.0,0.,24.0
1979-07-29 06:46:43.030 ,3,1,0.,24.0,0.,24.0
1979-07-29 06:47:07.030 ,0,1,0.,24.0,0.,24.0
1979-07-29 06:47:31.030 ,4,1,0.,24.0,0.,24.0
1979-07-29 06:47:55.030 ,7,1,0.,24.0,0.,24.0
1979-07-29 06:48:19.030 ,3,1,0.,24.0,0.,24.0
1979-07-29 06:48:43.030 ,0,1,0.,24.0,0.,24.0
1979-07-29 06:49:07.030 ,4,1,0.,24.0,0.,24.0
1979-07-29 06:49:31.030 ,7,1,0.,24.0,0.,24.0
1979-07-29 06:49:55.030 ,3,1,0.,24.0,0.,24.0
1979-07-29 06:50:19.030 ,0,1,0.,24.0,0.,24.0
1979-07-29 06:50:43.030 ,4,1,0.,24.0,0.,24.0
1979-07-29 06:51:07.030 ,7,1,0.,24.0,0.,24.0
1979-07-29 06:51:31.030 ,3,1,0.,24.0,0.,24.0
1979-07-29 06:51:55.030 ,0,1,0.,24.0,0.,24.0
1979-07-29 06:52:19.030 ,4,1,0.,24.0,0.,24.0
1979-07-29 06:52:43.030 ,7,1,0.,24.0,0.,24.0
1979-07-29 06:53:07.030 ,3,1,0.,24.0,0.,24.0
1979-07-29 06:53:31.030 ,0,1,0.,24.0,0.,24.0
1979-07-29 06:53:55.030 ,0,0,0.,24.0,0.,24.0
1979-07-29 06:54:19.030 ,0,0,0.,24.0,0.,24.0
1979-07-29 06:54:43.030 ,5,1,0.,24.0,0.,24.0
1979-07-29 06:55:07.030 ,5,0,0.,24.0,0.,24.0
1979-07-29 06:55:31.030 ,4,1,0.,24.0,0.,24.0
1979-07-29 06:55:55.030 ,4,0,0.,24.0,0.,24.0
1979-07-29 06:56:19.030 ,3,1,0.,24.0,0.,24.0
1979-07-29 06:56:43.030 ,3,0,0.,24.0,0.,24.0
1979-07-29 06:58:43.030 ,0,0,0.,24.0,0.,24.0
1979-07-29 06:59:07.030 ,0,0,0.,24.0,0.,24.0
1979-07-29 06:59:31.030 ,0,1,0.,24.0,0.,24.0
1979-07-29 06:59:55.030 ,0,0,0.,24.0,0.,24.0
1979-07-29 07:00:19.030 ,1,1,0.,24.0,0.,24.0
1979-07-29 07:00:43.030 ,1,0,0.,24.0,0.,24.0
1979-07-29 07:01:07.030 ,2,1,0.,24.0,0.,24.0
1979-07-29 07:01:31.030 ,2,0,0.,24.0,1.,24.0
1979-07-29 07:01:55.030 ,3,1,0.,24.0,0.,24.0
1979-07-29 07:02:19.030 ,3,0,0.,24.0,0.,24.0
1979-07-29 07:02:43.030 ,4,1,0.,24.0,0.,24.0
1979-07-29 07:03:07.030 ,4,0,0.,24.0,0.,24.0
1979-07-29 07:03:31.030 ,5,1,0.,24.0,0.,24.0
1979-07-29 07:03:55.030 ,5,0,0.,24.0,0.,24.0
1979-07-29 07:04:19.030 ,6,1,0.,24.0,0.,24.0
1979-07-29 07:04:43.030 ,6,0,0.,24.0,0.,24.0
1979-07-29 07:05:07.030 ,7,1,0.,24.0,0.,24.0
1979-07-29 07:05:31.030 ,7,0,0.,24.0,0.,24.0
1979-07-29 07:05:55.030 ,7,1,0.,24.0,0.,24.0
1979-07-29 07:06:19.030 ,7,0,0.,24.0,0.,24.0
1979-07-29 07:06:43.030 ,6,1,0.,24.0,0.,24.0
1979-07-29 07:07:07.030 ,6,0,0.,24.0,0.,24.0
1979-07-29 07:07:31.030 ,5,1,0.,24.0,0.,24.0
1979-07-29 07:07:55.030 ,5,0,0.,24.0,0.,24.0
1979-07-29 07:08:19.030 ,4,1,0.,24.0,0.,24.0
1979-07-29 07:08:43.030 ,4,0,0.,24.0,0.,24.0
1979-07-29 07:09:07.030 ,3,1,0.,24.0,0.,24.0
1979-07-29 07:09:31.030 ,3,0,0.,24.0,0.,24.0
1979-07-29 07:09:55.030 ,2,1,0.,24.0,0.,24.0
1979-07-29 07:10:19.030 ,2,0,0.,24.0,0.,24.0
1979-07-29 07:10:43.030 ,1,1,0.,24.0,0.,24.0
1979-07-29 07:11:07.030 ,1,0,0.,24.0,0.,24.0
1979-07-29 07:11:31.030 ,0,1,0.,24.0,0.,24.0
1979-07-29 07:11:55.030 ,0,0,0.,24.0,0.,24.0
1979-07-29 07:12:19.030 ,0,1,0.,24.0,0.,24.0
1979-07-29 07:12:43.030 ,0,0,0.,24.0,0.,24.0
1979-07-29 07:13:07.030 ,1,1,0.,24.0,0.,24.0
1979-07-29 07:13:31.030 ,1,0,0.,24.0,0.,24.0
1979-07-29 07:13:55.030 ,2,1,0.,24.0,0.,24.0
1979-07-29 07:14:19.030 ,2,0,0.,24.0,0.,24.0
1979-07-29 07:14:43.030 ,3,1,0.,24.0,0.,24.0
1979-07-29 07:15:07.030 ,3,0,0.,24.0,0.,24.0
1979-07-29 07:15:31.030 ,4,1,0.,24.0,0.,24.0
1979-07-29 07:15:55.030 ,4,0,0.,24.0,0.,24.0
1979-07-29 07:16:19.030 ,5,1,0.,24.0,0.,24.0
1979-07-29 07:16:43.030 ,5,0,0.,24.0,0.,24.0
1979-07-29 07:17:07.030 ,6,1,0.,24.0,0.,24.0
1979-07-29 07:17:31.030 ,6,0,0.,24.0,0.,24.0
1979-07-29 07:17:55.030 ,7,1,0.,24.0,0.,24.0
1979-07-29 07:18:19.030 ,7,0,0.,24.0,0.,24.0
1979-07-29 07:18:43.030 ,7,1,0.,24.0,0.,24.0
1979-07-29 07:19:07.030 ,7,0,0.,24.0,0.,24.0
1979-07-29 07:19:31.030 ,6,1,0.,24.0,0.,24.0
1979-07-29 07:19:55.030 ,6,0,0.,24.0,0.,24.0
1979-07-29 07:20:19.030 ,5,1,0.,24.0,0.,24.0
1979-07-29 07:20:43.030 ,5,0,0.,24.0,0.,24.0
1979-07-29 07:21:07.030 ,4,1,0.,24.0,0.,24.0
1979-07-29 07:21:31.030 ,4,0,0.,24.0,0.,24.0
1979-07-29 07:21:55.030 ,3,1,0.,24.0,0.,24.0
1979-07-29 07:22:19.030 ,3,0,0.,24.0,0.,24.0
1979-07-29 07:22:43.030 ,2,1,0.,24.0,0.,24.0
1979-07-29 07:23:07.030 ,2,0,0.,24.0,0.,24.0
1979-07-29 07:23:31.030 ,1,1,0.,24.0,0.,24.0
1979-07-29 07:23:55.030 ,1,0,0.,24.0,0.,24.0
1979-07-29 07:24:19.030 ,0,1,0.,24.0,0.,24.0
1979-07-29 07:24:43.030 ,0,0,0.,24.0,0.,24.0
1979-07-29 07:25:07.030 ,0,1,0.,24.0,0.,24.0
1979-07-29 07:25:31.030 ,0,0,0.,24.0,0.,24.0
1979-07-29 07:25:55.030 ,1,1,0.,24.0,0.,24.0
1979-07-29 07:26:19.030 ,1,0,0.,24.0,0.,24.0
1979-07-29 07:26:43.030 ,2,1,0.,24.0,0.,24.0
1979-07-29 07:27:07.030 ,2,0,0.,24.0,0.,24.0
1979-07-29 07:27:31.030 ,3,1,0.,24.0,0.,24.0
1979-07-29 07:27:55.030 ,3,0,0.,24.0,0.,24.0
1979-07-29 07:28:19.030 ,4,1,0.,24.0,0.,24.0
1979-07-29 07:28:43.030 ,4,0,0.,24.0,0.,24.0
1979-07-29 07:29:07.030 ,5,1,0.,24.0,0.,24.0
1979-07-29 07:29:31.030 ,5,0,0.,24.0,0.,24.0
1979-07-29 07:29:55.030 ,6,1,0.,24.0,0.,24.0
1979-07-29 07:30:19.030 ,6,0,0.,24.0,0.,24.0
1979-07-29 07:30:43.030 ,7,0,0.,24.0,0.,24.0
1979-07-29 07:31:07.030 ,7,0,0.,24.0,0.,24.0
1979-07-29 07:31:31.030 ,3,1,0.,24.0,0.,24.0
1979-07-29 07:31:55.030 ,0,1,0.,24.0,0.,24.0
1979-07-29 07:32:19.030 ,4,1,0.,24.0,0.,24.0
1979-07-29 07:32:43.030 ,7,1,0.,24.0,0.,24.0
1979-07-29 07:33:07.030 ,3,1,0.,24.0,0.,24.0
1979-07-29 07:33:31.030 ,0,1,0.,24.0,0.,24.0
1979-07-29 07:33:55.030 ,4,1,0.,24.0,0.,24.0
1979-07-29 07:34:19.020 ,7,1,0.,24.0,0.,24.0
1979-07-29 07:34:43.020 ,3,1,0.,24.0,0.,24.0
1979-07-29 07:35:07.020 ,0,1,0.,24.0,0.,24.0
1979-07-29 07:35:31.020 ,4,1,0.,24.0,0.,24.0
1979-07-29 07:35:55.020 ,7,1,0.,24.0,0.,24.0
1979-07-29 07:36:19.020 ,3,1,0.,24.0,0.,24.0
1979-07-29 07:36:43.020 ,0,1,0.,24.0,0.,24.0
1979-07-29 07:37:07.020 ,4,1,0.,24.0,0.,24.0
1979-07-29 07:37:31.020 ,7,1,0.,24.0,0.,24.0
1979-07-29 07:37:55.020 ,3,1,0.,24.0,0.,24.0
1979-07-29 07:38:19.020 ,0,1,0.,24.0,0.,24.0
1979-07-29 07:38:43.020 ,4,1,0.,24.0,0.,24.0
1979-07-29 07:39:07.020 ,7,1,0.,24.0,0.,24.0
1979-07-29 07:39:31.020 ,3,1,0.,24.0,0.,24.0
1979-07-29 07:39:55.020 ,0,1,0.,24.0,0.,24.0
1979-07-29 07:40:19.020 ,4,1,0.,24.0,0.,24.0
1979-07-29 07:40:43.020 ,7,1,0.,24.0,0.,24.0
1979-07-29 07:41:07.020 ,3,1,0.,24.0,0.,24.0
1979-07-29 07:41:31.020 ,0,1,0.,24.0,0.,24.0
1979-07-29 07:41:55.020 ,0,0,0.,24.0,0.,24.0
1979-07-29 07:42:19.020 ,0,0,0.,24.0,0.,24.0
1979-07-29 07:42:43.020 ,5,1,0.,24.0,0.,24.0
1979-07-29 07:43:07.020 ,5,0,0.,24.0,0.,24.0
1979-07-29 07:43:31.020 ,4,1,0.,24.0,0.,24.0
1979-07-29 07:43:55.020 ,4,0,0.,24.0,0.,24.0
1979-07-29 07:44:19.020 ,3,1,0.,24.0,0.,24.0
1979-07-29 07:44:43.020 ,3,0,0.,24.0,0.,24.0
1979-07-29 07:45:07.020 ,2,1,0.,24.0,0.,24.0
1979-07-29 07:45:31.020 ,2,0,0.,24.0,0.,24.0
1979-07-29 07:45:55.020 ,1,1,0.,24.0,0.,24.0
1979-07-29 07:46:19.020 ,1,0,0.,24.0,0.,24.0
1979-07-29 07:46:43.020 ,0,1,0.,24.0,0.,24.0
1979-07-29 07:47:07.020 ,0,0,0.,24.0,0.,24.0
1979-07-29 07:47:31.020 ,0,1,0.,24.0,0.,24.0
1979-07-29 07:47:55.020 ,0,0,0.,24.0,0.,24.0
1979-07-29 07:48:19.020 ,1,1,0.,24.0,0.,24.0
1979-07-29 07:48:43.020 ,1,0,0.,24.0,0.,24.0
1979-07-29 07:49:07.020 ,2,1,0.,24.0,0.,24.0
1979-07-29 07:49:31.020 ,2,0,0.,24.0,0.,24.0
1979-07-29 07:49:55.020 ,3,1,0.,24.0,0.,24.0
1979-07-29 07:50:19.020 ,3,0,0.,24.0,0.,24.0
1979-07-29 07:50:43.020 ,4,1,0.,24.0,0.,24.0
1979-07-29 07:51:07.020 ,4,0,0.,24.0,0.,24.0
1979-07-29 07:51:31.020 ,5,1,0.,24.0,0.,24.0
1979-07-29 07:51:55.020 ,5,0,0.,24.0,0.,24.0
1979-07-29 07:52:19.020 ,6,1,0.,24.0,0.,24.0
1979-07-29 07:52:43.020 ,6,0,0.,24.0,0.,24.0
1979-07-29 07:53:07.020 ,7,1,0.,24.0,0.,24.0
1979-07-29 07:53:31.020 ,7,0,0.,24.0,0.,24.0
1979-07-29 07:53:55.020 ,7,1,0.,24.0,0.,24.0
1979-07-29 07:54:19.020 ,7,0,0.,24.0,0.,24.0
1979-07-29 07:54:43.020 ,6,1,0.,24.0,0.,24.0
1979-07-29 07:55:07.020 ,6,0,0.,24.0,0.,24.0
1979-07-29 07:55:31.020 ,5,1,0.,24.0,0.,24.0
1979-07-29 07:55:55.020 ,5,0,0.,24.0,0.,24.0
1979-07-29 07:56:19.020 ,4,1,0.,24.0,0.,24.0
1979-07-29 07:56:43.020 ,4,0,0.,24.0,0.,24.0
1979-07-29 07:57:07.020 ,3,1,0.,24.0,0.,24.0
1979-07-29 07:57:31.020 ,3,0,0.,24.0,0.,24.0
1979-07-29 07:57:55.020 ,2,1,0.,24.0,0.,24.0
1979-07-29 07:58:19.020 ,2,0,0.,24.0,0.,24.0
1979-07-29 07:58:43.020 ,1,1,0.,24.0,0.,24.0
1979-07-29 07:59:07.020 ,1,0,0.,24.0,0.,24.0
1979-07-29 07:59:31.020 ,0,1,0.,24.0,0.,24.0
1979-07-29 07:59:55.020 ,0,0,0.,24.0,0.,24.0
1979-07-29 08:00:19.020 ,0,1,0.,24.0,0.,24.0
1979-07-29 08:00:43.020 ,0,0,0.,24.0,0.,24.0
1979-07-29 08:01:07.020 ,1,1,0.,24.0,0.,24.0
1979-07-29 08:01:31.020 ,1,0,0.,24.0,0.,24.0
1979-07-29 08:01:55.020 ,2,1,0.,24.0,0.,24.0
1979-07-29 08:02:19.020 ,2,0,0.,24.0,0.,24.0
1979-07-29 08:02:43.020 ,3,1,0.,24.0,0.,24.0
1979-07-29 08:03:07.020 ,3,0,0.,24.0,0.,24.0
1979-07-29 08:03:31.020 ,4,1,0.,24.0,0.,24.0
1979-07-29 08:03:55.020 ,4,0,0.,24.0,0.,24.0
1979-07-29 08:04:19.020 ,5,1,0.,24.0,0.,24.0
1979-07-29 08:04:43.020 ,5,0,0.,24.0,0.,24.0
1979-07-29 08:05:07.020 ,6,1,0.,24.0,0.,24.0
1979-07-29 08:05:31.020 ,6,0,0.,24.0,0.,24.0
1979-07-29 08:05:55.020 ,7,1,0.,24.0,0.,24.0
1979-07-29 08:06:19.020 ,7,0,0.,24.0,0.,24.0
1979-07-29 08:06:43.020 ,7,1,0.,24.0,0.,24.0
1979-07-29 08:07:07.020 ,7,0,0.,24.0,0.,24.0
1979-07-29 08:08:19.020 ,0,0,0.,24.0,0.,24.0
1979-07-29 08:08:43.020 ,0,0,0.,24.0,0.,24.0
1979-07-29 08:09:07.020 ,4,1,0.,24.0,0.,24.0
1979-07-29 08:09:31.020 ,4,0,0.,24.0,0.,24.0
1979-07-29 08:09:55.020 ,3,1,0.,24.0,0.,24.0
1979-07-29 08:10:19.020 ,3,0,0.,24.0,0.,24.0
1979-07-29 08:10:43.020 ,2,1,0.,24.0,0.,24.0
1979-07-29 08:11:07.020 ,2,0,0.,24.0,0.,24.0
1979-07-29 08:11:31.020 ,1,1,0.,24.0,0.,24.0
1979-07-29 08:11:55.020 ,1,0,0.,24.0,0.,24.0
1979-07-29 08:12:19.020 ,0,1,0.,24.0,0.,24.0
1979-07-29 08:12:43.020 ,0,0,0.,24.0,0.,24.0
1979-07-29 08:13:07.020 ,0,1,0.,24.0,0.,24.0
1979-07-29 08:13:31.020 ,0,0,0.,24.0,0.,24.0
1979-07-29 08:13:55.020 ,1,1,0.,24.0,0.,24.0
1979-07-29 08:14:19.020 ,1,0,0.,24.0,0.,24.0
1979-07-29 08:14:43.020 ,2,1,0.,24.0,0.,24.0
1979-07-29 08:15:07.020 ,2,0,0.,24.0,0.,24.0
1979-07-29 08:15:31.020 ,3,1,0.,24.0,0.,24.0
1979-07-29 08:15:55.020 ,3,0,0.,24.0,0.,24.0
1979-07-29 08:16:19.020 ,4,1,0.,24.0,0.,24.0
1979-07-29 08:16:43.020 ,4,0,0.,24.0,0.,24.0
1979-07-29 08:17:07.020 ,5,1,0.,24.0,0.,24.0
1979-07-29 08:17:31.020 ,5,0,0.,24.0,0.,24.0
1979-07-29 08:17:55.020 ,6,1,0.,24.0,0.,24.0
1979-07-29 08:18:19.020 ,6,0,0.,24.0,0.,24.0
1979-07-29 08:18:43.020 ,7,0,0.,24.0,0.,24.0
1979-07-29 08:19:07.020 ,7,0,0.,24.0,0.,24.0
1979-07-29 08:19:31.020 ,3,1,0.,24.0,0.,24.0
1979-07-29 08:19:55.020 ,0,1,0.,24.0,0.,24.0
1979-07-29 08:20:19.020 ,4,1,0.,24.0,0.,24.0
1979-07-29 08:20:43.020 ,7,1,0.,24.0,0.,24.0
1979-07-29 08:21:07.020 ,3,1,0.,24.0,0.,24.0
1979-07-29 08:21:31.020 ,0,1,0.,24.0,0.,24.0
1979-07-29 08:21:55.020 ,4,1,0.,24.0,0.,24.0
1979-07-29 08:22:19.020 ,7,1,0.,24.0,0.,24.0
1979-07-29 08:22:43.020 ,3,1,0.,24.0,0.,24.0
1979-07-29 08:23:07.020 ,0,1,0.,24.0,0.,24.0
1979-07-29 08:23:31.020 ,4,1,0.,24.0,0.,24.0
1979-07-29 08:23:55.020 ,7,1,0.,24.0,0.,24.0
1979-07-29 08:24:19.020 ,3,1,0.,24.0,0.,24.0
1979-07-29 08:24:43.020 ,0,1,0.,24.0,0.,24.0
1979-07-29 08:25:07.020 ,4,1,0.,24.0,0.,24.0
1979-07-29 08:25:31.020 ,7,1,0.,24.0,0.,24.0
1979-07-29 08:25:55.020 ,3,1,0.,24.0,0.,24.0
1979-07-29 08:26:19.020 ,0,1,0.,24.0,0.,24.0
1979-07-29 08:26:43.020 ,4,1,0.,24.0,0.,24.0
1979-07-29 08:27:07.020 ,7,1,0.,24.0,0.,24.0
1979-07-29 08:27:31.020 ,3,1,0.,24.0,0.,24.0
1979-07-29 08:27:55.020 ,0,1,0.,24.0,0.,24.0
1979-07-29 08:28:19.020 ,4,1,0.,24.0,0.,24.0
1979-07-29 08:28:43.020 ,7,1,0.,24.0,0.,24.0
1979-07-29 08:29:07.020 ,3,1,0.,24.0,0.,24.0
1979-07-29 08:29:31.020 ,0,1,0.,24.0,0.,24.0
1979-07-29 08:30:43.020 ,0,0,0.,24.0,0.,24.0
1979-07-29 08:31:07.020 ,0,0,0.,24.0,0.,24.0
1979-07-29 08:31:31.020 ,4,1,0.,24.0,0.,24.0
1979-07-29 08:31:55.020 ,4,0,0.,24.0,0.,24.0
1979-07-29 08:32:19.020 ,3,1,0.,24.0,0.,24.0
1979-07-29 08:32:43.020 ,3,0,0.,24.0,0.,24.0
1979-07-29 08:33:07.020 ,2,1,0.,24.0,0.,24.0
1979-07-29 08:33:31.020 ,2,0,0.,24.0,0.,24.0
1979-07-29 08:33:55.020 ,1,1,0.,24.0,0.,24.0
1979-07-29 08:34:19.020 ,1,0,0.,24.0,0.,24.0
1979-07-29 08:34:43.020 ,0,1,0.,24.0,0.,24.0
1979-07-29 08:35:07.020 ,0,0,0.,24.0,0.,24.0
1979-07-29 08:35:31.020 ,0,1,0.,24.0,0.,24.0
1979-07-29 08:35:55.020 ,0,0,0.,24.0,0.,24.0
1979-07-29 08:36:19.020 ,1,1,0.,24.0,0.,24.0
1979-07-29 08:36:43.020 ,1,0,0.,24.0,0.,24.0
1979-07-29 08:37:07.020 ,2,1,0.,24.0,0.,24.0
1979-07-29 08:37:31.020 ,2,0,0.,24.0,0.,24.0
1979-07-29 08:37:55.020 ,3,1,0.,24.0,0.,24.0
1979-07-29 08:38:19.020 ,3,0,0.,24.0,0.,24.0
1979-07-29 08:38:43.020 ,4,1,0.,24.0,0.,24.0
1979-07-29 08:39:07.020 ,4,0,0.,24.0,0.,24.0
1979-07-29 08:39:31.020 ,5,1,0.,24.0,0.,24.0
1979-07-29 08:39:55.020 ,5,0,0.,24.0,0.,24.0
1979-07-29 08:40:19.020 ,6,1,0.,24.0,0.,24.0
1979-07-29 08:40:43.020 ,6,0,0.,24.0,0.,24.0
1979-07-29 08:41:07.020 ,7,1,0.,24.0,0.,24.0
1979-07-29 08:41:31.020 ,7,0,0.,24.0,0.,24.0
1979-07-29 08:41:55.020 ,7,1,0.,24.0,0.,24.0
1979-07-29 08:42:19.020 ,7,0,0.,24.0,0.,24.0
1979-07-29 08:42:43.020 ,6,1,0.,24.0,0.,24.0
1979-07-29 08:43:07.020 ,6,0,0.,24.0,0.,24.0
1979-07-29 08:43:31.020 ,5,1,0.,24.0,0.,24.0
1979-07-29 08:43:55.020 ,5,0,0.,24.0,0.,24.0
1979-07-29 08:44:19.020 ,4,1,0.,24.0,0.,24.0
1979-07-29 08:44:43.020 ,4,0,0.,24.0,0.,24.0
1979-07-29 08:45:07.020 ,3,1,0.,24.0,0.,24.0
1979-07-29 08:45:31.020 ,3,0,0.,24.0,0.,24.0
1979-07-29 08:45:55.020 ,2,1,0.,24.0,0.,24.0
1979-07-29 08:46:19.020 ,2,0,0.,24.0,0.,24.0
1979-07-29 08:46:43.020 ,1,1,0.,24.0,0.,24.0
1979-07-29 08:47:07.020 ,1,0,0.,24.0,0.,24.0
1979-07-29 08:47:31.020 ,0,1,0.,24.0,0.,24.0
1979-07-29 08:47:55.020 ,0,0,0.,24.0,0.,24.0
1979-07-29 08:48:19.020 ,0,1,0.,24.0,0.,24.0
1979-07-29 08:48:43.020 ,0,0,0.,24.0,0.,24.0
1979-07-29 08:49:07.020 ,1,1,0.,24.0,0.,24.0
1979-07-29 08:49:31.020 ,1,0,0.,24.0,0.,24.0
1979-07-29 08:49:55.020 ,2,1,0.,24.0,0.,24.0
1979-07-29 08:50:19.020 ,2,0,0.,24.0,0.,24.0
1979-07-29 08:50:43.020 ,3,1,0.,24.0,0.,24.0
1979-07-29 08:51:07.020 ,3,0,0.,24.0,0.,24.0
1979-07-29 08:51:31.020 ,4,1,0.,24.0,0.,24.0
1979-07-29 08:51:55.020 ,4,0,0.,24.0,0.,24.0
1979-07-29 08:52:19.020 ,5,1,0.,24.0,0.,24.0
1979-07-29 08:52:43.020 ,5,0,0.,24.0,0.,24.0
1979-07-29 08:53:07.020 ,6,1,0.,24.0,0.,24.0
1979-07-29 08:53:31.020 ,6,0,0.,24.0,0.,24.0
1979-07-29 08:53:55.020 ,7,1,0.,24.0,0.,24.0
1979-07-29 08:54:19.020 ,7,0,0.,24.0,0.,24.0
1979-07-29 08:54:43.020 ,7,1,1.,24.0,0.,24.0
1979-07-29 08:55:07.020 ,7,0,0.,24.0,0.,24.0
1979-07-29 08:55:31.020 ,6,1,0.,24.0,0.,24.0
1979-07-29 08:55:55.020 ,6,0,0.,24.0,0.,24.0
1979-07-29 08:56:19.020 ,5,1,0.,24.0,0.,24.0
1979-07-29 08:56:43.020 ,5,0,0.,24.0,0.,24.0
1979-07-29 08:57:07.020 ,4,1,0.,24.0,0.,24.0
1979-07-29 08:57:31.020 ,4,0,0.,24.0,0.,24.0
1979-07-29 08:57:55.020 ,3,1,0.,24.0,0.,24.0
1979-07-29 08:58:19.020 ,3,0,0.,24.0,0.,24.0
1979-07-29 08:58:43.020 ,2,1,0.,24.0,0.,24.0
1979-07-29 08:59:07.020 ,2,0,0.,24.0,0.,24.0
1979-07-29 08:59:31.020 ,1,1,0.,24.0,0.,24.0
1979-07-29 08:59:55.020 ,1,0,0.,24.0,0.,24.0
1979-07-29 09:00:19.020 ,0,1,0.,24.0,0.,24.0
